Time,TemperatureF,DewpointF,PressureIn,WindDirection,WindDirectionDegrees,WindSpeedMPH,WindSpeedGustMPH,Humidity,HourlyPrecipIn,Conditions,Clouds,dailyrainin,SoftwareType,DateUTC
2013-05-30 00:03:00,68.0,64.0,-100.00,SSE,160,13.0,13.0,87,0.00,,,-99.99,,2013-05-30 04:03:00,
2013-05-30 00:13:00,67.0,64.0,-100.00,SSE,165,13.0,13.0,89,0.00,,,-99.99,,2013-05-30 04:13:00,
2013-05-30 00:23:00,67.0,64.0,-100.00,SSE,160,13.0,13.0,88,0.00,,,-99.99,,2013-05-30 04:23:00,
2013-05-30 00:33:00,67.0,64.0,-100.00,SSE,160,13.0,13.0,89,0.00,,,-99.99,,2013-05-30 04:33:00,
2013-05-30 00:42:00,67.0,64.0,-100.00,SSE,160,13.0,13.0,89,0.00,,,-99.99,,2013-05-30 04:42:00,
2013-05-30 00:53:00,68.0,64.0,-100.00,SSE,155,13.0,13.0,86,0.00,,,-99.99,,2013-05-30 04:53:00,
2013-05-30 01:02:00,68.0,64.0,-100.00,SSE,155,13.0,13.0,86,0.00,,,-99.99,,2013-05-30 05:02:00,
2013-05-30 01:12:00,68.0,64.0,-100.00,SSE,165,13.0,13.0,86,0.00,,,-99.99,,2013-05-30 05:12:00,
2013-05-30 01:22:00,67.0,64.0,-100.00,SSE,165,13.0,13.0,88,0.00,,,-99.99,,2013-05-30 05:22:00,
2013-05-30 01:32:00,68.0,64.0,-100.00,SSE,165,13.0,13.0,87,0.00,,,-99.99,,2013-05-30 05:32:00,
2013-05-30 01:42:00,68.0,64.0,-100.00,SSE,165,13.0,13.0,87,0.00,,,-99.99,,2013-05-30 05:42:00,
2013-05-30 01:52:00,67.0,64.0,-100.00,SSE,165,13.0,13.0,87,0.00,,,-99.99,,2013-05-30 05:52:00,
2013-05-30 02:01:00,68.0,63.0,-100.00,South,170,13.0,13.0,86,0.00,,,-99.99,,2013-05-30 06:01:00,
2013-05-30 02:12:00,68.0,63.0,-100.00,South,175,13.0,13.0,85,0.00,,,-99.99,,2013-05-30 06:12:00,
2013-05-30 02:22:00,68.0,63.0,-100.00,South,170,13.0,13.0,84,0.00,,,-99.99,,2013-05-30 06:22:00,
2013-05-30 02:32:00,67.0,63.0,-100.00,South,170,13.0,13.0,85,0.00,,,-99.99,,2013-05-30 06:32:00,
2013-05-30 02:42:00,67.0,63.0,-100.00,South,175,13.0,13.0,87,0.00,,,-99.99,,2013-05-30 06:42:00,
2013-05-30 02:52:00,67.0,63.0,-100.00,South,170,13.0,13.0,85,0.00,,,-99.99,,2013-05-30 06:52:00,
2013-05-30 03:01:00,67.0,63.0,-100.00,South,175,13.0,13.0,85,0.00,,,-99.99,,2013-05-30 07:01:00,
2013-05-30 03:12:00,67.0,63.0,-100.00,South,170,13.0,13.0,86,0.00,,,-99.99,,2013-05-30 07:12:00,
2013-05-30 03:22:00,67.0,63.0,-100.00,South,175,13.0,13.0,87,0.00,,,-99.99,,2013-05-30 07:22:00,
2013-05-30 03:32:00,67.0,63.0,-100.00,South,175,13.0,13.0,87,0.00,,,-99.99,,2013-05-30 07:32:00,
2013-05-30 03:42:00,67.0,63.0,-100.00,South,170,13.0,13.0,88,0.00,,,-99.99,,2013-05-30 07:42:00,
2013-05-30 03:52:00,67.0,63.0,-100.00,South,170,13.0,13.0,86,0.00,,,-99.99,,2013-05-30 07:52:00,
2013-05-30 04:02:00,66.0,63.0,-100.00,SSE,165,13.0,13.0,89,0.00,,,-99.99,,2013-05-30 08:02:00,
2013-05-30 04:11:00,66.0,63.0,-100.00,South,170,13.0,13.0,91,0.00,,,-99.99,,2013-05-30 08:11:00,
2013-05-30 04:22:00,66.0,64.0,-100.00,SSE,165,13.0,13.0,91,0.00,,,-99.99,,2013-05-30 08:22:00,
2013-05-30 04:32:00,67.0,64.0,-100.00,South,170,13.0,13.0,90,0.00,,,-99.99,,2013-05-30 08:32:00,
2013-05-30 04:42:00,67.0,64.0,-100.00,SSE,155,13.0,13.0,90,0.00,,,-99.99,,2013-05-30 08:42:00,
2013-05-30 04:52:00,67.0,64.0,-100.00,SSE,155,13.0,13.0,89,0.00,,,-99.99,,2013-05-30 08:52:00,
2013-05-30 05:01:00,66.0,64.0,-100.00,SSE,160,13.0,13.0,91,0.00,,,-99.99,,2013-05-30 09:01:00,
2013-05-30 05:11:00,66.0,64.0,-100.00,SSE,165,13.0,13.0,92,0.00,,,-99.99,,2013-05-30 09:11:00,
2013-05-30 05:21:00,66.0,64.0,-100.00,SSE,155,13.0,13.0,92,0.00,,,-99.99,,2013-05-30 09:21:00,
2013-05-30 05:33:00,66.0,64.0,-100.00,SSE,155,13.0,13.0,93,0.00,,,-99.99,,2013-05-30 09:33:00,
2013-05-30 05:42:00,65.0,64.0,-100.00,SSE,155,13.0,13.0,93,0.00,,,-99.99,,2013-05-30 09:42:00,
2013-05-30 05:53:00,66.0,64.0,-100.00,SSE,155,13.0,13.0,94,0.00,,,-99.99,,2013-05-30 09:53:00,
2013-05-30 06:03:00,66.0,64.0,-100.00,SSE,150,13.0,13.0,94,0.00,,,-99.99,,2013-05-30 10:03:00,
2013-05-30 06:13:00,66.0,64.0,-100.00,SSE,150,13.0,13.0,94,0.00,,,-99.99,,2013-05-30 10:13:00,
2013-05-30 06:23:00,65.0,64.0,-100.00,SSE,150,13.0,13.0,95,0.00,,,-99.99,,2013-05-30 10:23:00,
2013-05-30 06:33:00,65.0,64.0,-100.00,SSE,160,13.0,13.0,96,0.00,,,-99.99,,2013-05-30 10:33:00,
2013-05-30 06:42:00,65.0,64.0,-100.00,SSE,165,13.0,13.0,97,0.00,,,-99.99,,2013-05-30 10:42:00,
2013-05-30 06:52:00,66.0,65.0,-100.00,SSE,165,13.0,13.0,97,0.00,,,-99.99,,2013-05-30 10:52:00,
2013-05-30 07:03:00,65.0,65.0,-100.00,SSE,165,13.0,13.0,97,0.00,,,-99.99,,2013-05-30 11:03:00,
2013-05-30 07:12:00,65.0,65.0,-100.00,South,170,13.0,13.0,99,0.00,,,-99.99,,2013-05-30 11:12:00,
2013-05-30 07:22:00,66.0,-99.9,-100.00,South,170,13.0,13.0,-999,0.00,,,-99.99,,2013-05-30 11:22:00,
2013-05-30 07:32:00,67.0,-99.9,-100.00,SSE,165,13.0,13.0,-999,0.00,,,-99.99,,2013-05-30 11:32:00,
2013-05-30 07:42:00,67.0,67.0,-100.00,SSE,155,13.0,13.0,99,0.00,,,-99.99,,2013-05-30 11:42:00,
2013-05-30 07:52:00,68.0,67.0,-100.00,SSE,155,12.0,13.0,97,0.00,,,-99.99,,2013-05-30 11:52:00,
2013-05-30 08:01:00,69.0,68.0,-100.00,SSE,160,9.0,13.0,94,0.00,,,-99.99,,2013-05-30 12:01:00,
2013-05-30 08:11:00,70.0,68.0,-100.00,South,175,9.0,12.0,91,0.00,,,-99.99,,2013-05-30 12:11:00,
2013-05-30 08:22:00,71.0,68.0,-100.00,South,170,9.0,12.0,89,0.00,,,-99.99,,2013-05-30 12:22:00,
2013-05-30 08:32:00,72.0,68.0,-100.00,South,170,11.0,12.0,87,0.00,,,-99.99,,2013-05-30 12:32:00,
2013-05-30 08:42:00,73.0,68.0,-100.00,South,170,9.0,14.0,85,0.00,,,-99.99,,2013-05-30 12:42:00,
2013-05-30 08:52:00,74.0,68.0,-100.00,South,175,10.0,12.0,83,0.00,,,-99.99,,2013-05-30 12:52:00,
2013-05-30 09:01:00,75.0,69.0,-100.00,South,170,10.0,15.0,80,0.00,,,-99.99,,2013-05-30 13:01:00,
2013-05-30 09:11:00,76.0,69.0,-100.00,South,175,8.0,12.0,78,0.00,,,-99.99,,2013-05-30 13:11:00,
2013-05-30 09:22:00,76.0,68.0,-100.00,South,180,10.0,17.0,75,0.00,,,-99.99,,2013-05-30 13:22:00,
2013-05-30 09:32:00,77.0,68.0,-100.00,South,180,11.0,16.0,74,0.00,,,-99.99,,2013-05-30 13:32:00,
2013-05-30 09:42:00,78.0,69.0,-100.00,South,175,9.0,17.0,73,0.00,,,-99.99,,2013-05-30 13:42:00,
2013-05-30 09:52:00,79.0,69.0,-100.00,South,170,10.0,16.0,71,0.00,,,-99.99,,2013-05-30 13:52:00,
2013-05-30 10:02:00,79.0,68.0,-100.00,South,185,12.0,17.0,68,0.00,,,-99.99,,2013-05-30 14:02:00,
2013-05-30 10:11:00,80.0,69.0,-100.00,South,175,13.0,19.0,68,0.00,,,-99.99,,2013-05-30 14:11:00,
2013-05-30 10:22:00,81.0,69.0,-100.00,South,190,10.0,17.0,67,0.00,,,-99.99,,2013-05-30 14:22:00,
2013-05-30 10:32:00,81.0,69.0,-100.00,South,185,15.0,18.0,65,0.00,,,-99.99,,2013-05-30 14:32:00,
2013-05-30 10:42:00,82.0,68.0,-100.00,South,190,12.0,21.0,62,0.00,,,-99.99,,2013-05-30 14:42:00,
2013-05-30 10:52:00,82.0,68.0,-100.00,South,190,16.0,23.0,63,0.00,,,-99.99,,2013-05-30 14:52:00,
2013-05-30 11:01:00,81.0,68.0,-100.00,South,185,14.0,21.0,64,0.00,,,-99.99,,2013-05-30 15:01:00,
2013-05-30 11:11:00,80.0,68.0,-100.00,South,175,9.0,18.0,66,0.00,,,-99.99,,2013-05-30 15:11:00,
2013-05-30 11:22:00,81.0,68.0,-100.00,South,170,12.0,19.0,64,0.00,,,-99.99,,2013-05-30 15:22:00,
2013-05-30 11:33:00,81.0,69.0,-100.00,South,175,14.0,20.0,65,0.00,,,-99.99,,2013-05-30 15:33:00,
2013-05-30 11:42:00,80.0,69.0,-100.00,South,170,13.0,18.0,68,0.00,,,-99.99,,2013-05-30 15:42:00,
2013-05-30 11:52:00,81.0,68.0,-100.00,South,175,11.0,19.0,65,0.00,,,-99.99,,2013-05-30 15:52:00,
2013-05-30 12:03:00,82.0,69.0,-100.00,South,175,11.0,17.0,66,0.00,,,-99.99,,2013-05-30 16:03:00,
2013-05-30 12:12:00,82.0,69.0,-100.00,South,185,11.0,15.0,64,0.00,,,-99.99,,2013-05-30 16:12:00,
2013-05-30 12:23:00,82.0,69.0,-100.00,South,175,14.0,21.0,63,0.00,,,-99.99,,2013-05-30 16:23:00,
2013-05-30 12:33:00,83.0,69.0,-100.00,South,175,12.0,19.0,62,0.00,,,-99.99,,2013-05-30 16:33:00,
2013-05-30 12:42:00,84.0,69.0,-100.00,South,185,12.0,21.0,61,0.00,,,-99.99,,2013-05-30 16:42:00,
2013-05-30 12:52:00,84.0,70.0,-100.00,South,170,11.0,20.0,61,0.00,,,-99.99,,2013-05-30 16:52:00,
2013-05-30 13:02:00,85.0,68.0,-100.00,South,180,14.0,18.0,58,0.00,,,-99.99,,2013-05-30 17:02:00,
2013-05-30 13:12:00,85.0,68.0,-100.00,South,180,14.0,18.0,58,0.00,,,-99.99,,2013-05-30 17:12:00,
2013-05-30 13:22:00,86.0,69.0,-100.00,South,185,9.0,17.0,56,0.00,,,-99.99,,2013-05-30 17:22:00,
2013-05-30 13:32:00,86.0,69.0,-100.00,South,185,9.0,17.0,56,0.00,,,-99.99,,2013-05-30 17:32:00,
2013-05-30 13:42:00,86.0,69.0,-100.00,South,185,9.0,17.0,56,0.00,,,-99.99,,2013-05-30 17:42:00,
2013-05-30 13:52:00,87.0,67.0,-100.00,South,180,12.0,19.0,52,0.00,,,-99.99,,2013-05-30 17:52:00,
2013-05-30 14:02:00,87.0,66.0,-100.00,South,185,15.0,23.0,49,0.00,,,-99.99,,2013-05-30 18:02:00,
2013-05-30 14:11:00,86.0,67.0,-100.00,South,175,16.0,27.0,52,0.00,,,-99.99,,2013-05-30 18:11:00,
2013-05-30 14:22:00,86.0,67.0,-100.00,South,185,13.0,20.0,53,0.00,,,-99.99,,2013-05-30 18:22:00,
2013-05-30 14:32:00,85.0,66.0,-100.00,South,185,10.0,24.0,52,0.00,,,-99.99,,2013-05-30 18:32:00,
2013-05-30 14:42:00,86.0,66.0,-100.00,South,175,16.0,22.0,52,0.00,,,-99.99,,2013-05-30 18:42:00,
2013-05-30 14:51:00,86.0,63.0,-100.00,South,180,19.0,28.0,46,0.00,,,-99.99,,2013-05-30 18:51:00,
2013-05-30 15:02:00,87.0,65.0,-100.00,South,185,10.0,24.0,47,0.00,,,-99.99,,2013-05-30 19:02:00,
2013-05-30 15:12:00,87.0,66.0,-100.00,South,180,12.0,21.0,50,0.00,,,-99.99,,2013-05-30 19:12:00,
2013-05-30 15:23:00,86.0,67.0,-100.00,SSW,195,10.0,16.0,51,0.00,,,-99.99,,2013-05-30 19:23:00,
2013-05-30 15:32:00,85.0,66.0,-100.00,SSW,195,13.0,22.0,52,0.00,,,-99.99,,2013-05-30 19:32:00,
2013-05-30 15:42:00,85.0,66.0,-100.00,SSW,200,12.0,19.0,53,0.00,,,-99.99,,2013-05-30 19:42:00,
2013-05-30 15:52:00,86.0,67.0,-100.00,South,190,11.0,16.0,52,0.00,,,-99.99,,2013-05-30 19:52:00,
2013-05-30 16:02:00,86.0,66.0,-100.00,SSW,195,12.0,17.0,51,0.00,,,-99.99,,2013-05-30 20:02:00,
2013-05-30 16:11:00,87.0,65.0,-100.00,South,185,10.0,17.0,49,0.00,,,-99.99,,2013-05-30 20:11:00,
2013-05-30 16:22:00,86.0,66.0,-100.00,South,190,10.0,15.0,51,0.00,,,-99.99,,2013-05-30 20:22:00,
2013-05-30 16:33:00,87.0,66.0,-100.00,South,175,9.0,15.0,48,0.00,,,-99.99,,2013-05-30 20:33:00,
2013-05-30 16:42:00,87.0,65.0,-100.00,South,180,13.0,19.0,48,0.00,,,-99.99,,2013-05-30 20:42:00,
2013-05-30 16:52:00,88.0,66.0,-100.00,South,185,12.0,18.0,48,0.00,,,-99.99,,2013-05-30 20:52:00,
2013-05-30 17:01:00,88.0,65.0,-100.00,South,170,14.0,21.0,46,0.00,,,-99.99,,2013-05-30 21:01:00,
2013-05-30 17:11:00,88.0,64.0,-100.00,South,170,11.0,23.0,46,0.00,,,-99.99,,2013-05-30 21:11:00,
2013-05-30 17:22:00,88.0,65.0,-100.00,SSE,155,13.0,19.0,46,0.00,,,-99.99,,2013-05-30 21:22:00,
2013-05-30 17:33:00,88.0,65.0,-100.00,SSE,160,18.0,24.0,46,0.00,,,-99.99,,2013-05-30 21:33:00,
2013-05-30 17:43:00,87.0,65.0,-100.00,South,175,16.0,23.0,47,0.00,,,-99.99,,2013-05-30 21:43:00,
2013-05-30 17:53:00,85.0,65.0,-100.00,South,170,15.0,25.0,50,0.00,,,-99.99,,2013-05-30 21:53:00,
2013-05-30 18:02:00,85.0,64.0,-100.00,South,175,14.0,18.0,50,0.00,,,-99.99,,2013-05-30 22:02:00,
2013-05-30 18:12:00,83.0,66.0,-100.00,South,185,10.0,21.0,55,0.00,,,-99.99,,2013-05-30 22:12:00,
2013-05-30 18:23:00,84.0,67.0,-100.00,South,190,9.0,14.0,55,0.00,,,-99.99,,2013-05-30 22:23:00,
2013-05-30 18:33:00,85.0,67.0,-100.00,South,175,9.0,12.0,54,0.00,,,-99.99,,2013-05-30 22:33:00,
2013-05-30 18:42:00,85.0,66.0,-100.00,South,185,7.0,12.0,52,0.00,,,-99.99,,2013-05-30 22:42:00,
2013-05-30 18:52:00,86.0,65.0,-100.00,South,170,15.0,18.0,50,0.00,,,-99.99,,2013-05-30 22:52:00,
2013-05-30 19:02:00,84.0,66.0,-100.00,South,175,9.0,17.0,53,0.00,,,-99.99,,2013-05-30 23:02:00,
2013-05-30 19:11:00,84.0,66.0,-100.00,South,170,10.0,17.0,54,0.00,,,-99.99,,2013-05-30 23:11:00,
2013-05-30 19:22:00,80.0,70.0,-100.00,SSW,210,11.0,19.0,72,0.00,,,-99.99,,2013-05-30 23:22:00,
2013-05-30 19:32:00,78.0,71.0,-100.00,SW,220,4.0,12.0,76,0.00,,,-99.99,,2013-05-30 23:32:00,
2013-05-30 19:41:00,79.0,69.0,-100.00,SSW,195,3.0,6.0,72,0.00,,,-99.99,,2013-05-30 23:41:00,
2013-05-30 19:52:00,79.0,69.0,-100.00,SSW,200,1.0,5.0,72,0.00,,,-99.99,,2013-05-30 23:52:00,
2013-05-30 20:01:00,80.0,69.0,-100.00,SE,140,4.0,9.0,68,0.00,,,-99.99,,2013-05-31 00:01:00,
2013-05-30 20:11:00,80.0,70.0,-100.00,SE,140,3.0,4.0,70,0.00,,,-99.99,,2013-05-31 00:11:00,
2013-05-30 20:22:00,83.0,67.0,-100.00,SSE,160,10.0,14.0,59,0.00,,,-99.99,,2013-05-31 00:22:00,
2013-05-30 20:32:00,78.0,68.0,-100.00,SSE,160,16.0,30.0,69,0.00,,,-99.99,,2013-05-31 00:32:00,
2013-05-30 20:42:00,78.0,67.0,-100.00,SSE,155,11.0,16.0,67,0.00,,,-99.99,,2013-05-31 00:42:00,
2013-05-30 20:52:00,78.0,66.0,-100.00,SSE,155,12.0,16.0,66,0.00,,,-99.99,,2013-05-31 00:52:00,
2013-05-30 21:01:00,71.0,67.0,-100.00,SSE,155,24.0,35.0,87,0.00,,,-99.99,,2013-05-31 01:01:00,
2013-05-30 21:12:00,69.0,66.0,-100.00,SSE,155,9.0,25.0,89,0.55,,,-99.99,,2013-05-31 01:12:00,
2013-05-30 21:21:00,70.0,66.0,-100.00,SSE,160,14.0,17.0,89,0.00,,,-99.99,,2013-05-31 01:21:00,
2013-05-30 21:32:00,69.0,67.0,-100.00,SSE,165,7.0,14.0,93,0.55,,,-99.99,,2013-05-31 01:32:00,
2013-05-30 21:42:00,69.0,68.0,-100.00,SSE,165,7.0,10.0,97,0.00,,,-99.99,,2013-05-31 01:42:00,
2013-05-30 21:52:00,69.0,69.0,-100.00,SSE,155,6.0,11.0,98,0.00,,,-99.99,,2013-05-31 01:52:00,
2013-05-30 22:02:00,69.0,69.0,-100.00,SSE,160,6.0,7.0,99,0.00,,,-99.99,,2013-05-31 02:02:00,
2013-05-30 22:11:00,69.0,-99.9,-100.00,South,170,5.0,7.0,-999,0.00,,,-99.99,,2013-05-31 02:11:00,
2013-05-30 22:22:00,69.0,-99.9,-100.00,SSE,165,4.0,7.0,-999,0.00,,,-99.99,,2013-05-31 02:22:00,
2013-05-30 22:32:00,69.0,-99.9,-100.00,SSE,165,3.0,6.0,-999,0.00,,,-99.99,,2013-05-31 02:32:00,
2013-05-30 22:42:00,69.0,-99.9,-100.00,South,170,5.0,9.0,-999,0.00,,,-99.99,,2013-05-31 02:42:00,
2013-05-30 22:51:00,70.0,69.0,-100.00,SSE,165,7.0,9.0,97,0.00,,,-99.99,,2013-05-31 02:51:00,
2013-05-30 23:01:00,70.0,69.0,-100.00,SSE,155,8.0,10.0,94,0.00,,,-99.99,,2013-05-31 03:01:00,
2013-05-30 23:11:00,71.0,69.0,-100.00,SSE,160,7.0,10.0,93,0.00,,,-99.99,,2013-05-31 03:11:00,
2013-05-30 23:21:00,71.0,69.0,-100.00,SSE,160,7.0,11.0,92,0.00,,,-99.99,,2013-05-31 03:21:00,
2013-05-30 23:33:00,71.0,69.0,-100.00,SSE,165,7.0,10.0,92,0.00,,,-99.99,,2013-05-31 03:33:00,
2013-05-30 23:43:00,71.0,69.0,-100.00,SE,130,2.0,9.0,91,0.00,,,-99.99,,2013-05-31 03:43:00,
2013-05-30 23:53:00,71.0,69.0,-100.00,SSE,165,6.0,9.0,93,0.00,,,-99.99,,2013-05-31 03:53:00,